Probability
0 0 0 0 0 0 0 0 1 1 1 1 1 0 0 0 1 2 1 0 1 0 0 0 0 0 0 0 1 2 2 2 2 3 3 3 3 4 5 6 6 6 6
0 0 0 0 0 0 0 0 1 2 2 2 2 1 1 1 1 1 1 0 1 0 0 1 1 0 0 0 0 1 1 2 2 2 2 3 3 4 5 6 6 6 6
0 0 0 0 0 0 0 0 1 2 2 2 2 2 2 1 1 0 0 0 0 0 1 2 2 1 0 0 0 0 0 1 1 1 1 1 2 3 4 6 6 6 6
0 0 0 0 0 0 0 0 0 1 1 1 2 1 1 1 0 0 0 0 0 0 1 2 2 1 0 0 0 0 0 0 0 0 0 0 1 3 4 6 6 6 6
0 0 0 0 0 0 0 0 0 0 0 0 0 0 0 0 0 0 0 0 0 0 1 1 1 0 0 0 0 0 0 0 0 0 0 0 1 2 4 6 6 6 6
1 1 2 2 1 0 0 0 0 0 0 0 0 0 0 0 0 0 0 0 0 0 0 0 0 0 0 0 0 0 0 0 0 0 0 0 0 1 3 4 5 5 4
1 2 3 3 2 1 0 0 0 0 0 0 0 0 0 0 0 0 0 0 0 0 0 0 0 0 0 0 0 0 0 0 0 0 0 0 0 1 2 3 3 2 2
1 2 3 3 3 2 1 1 0 0 0 0 0 0 0 0 0 0 0 0 0 0 0 0 0 0 0 0 0 0 0 0 0 0 0 0 0 0 2 2 2 2 1
1 2 3 4 4 4 3 3 2 1 1 1 1 0 0 0 0 1 1 0 0 0 0 0 0 0 0 0 0 0 0 0 0 0 0 0 0 0 1 2 2 2 1
0 1 3 4 5 5 6 5 4 3 2 2 2 1 1 1 1 1 1 0 0 0 0 0 0 0 0 0 0 0 0 0 0 0 0 0 1 1 1 2 2 2 1
0 0 1 3 4 5 6 6 6 4 3 3 3 3 3 3 2 1 1 0 0 1 0 0 0 0 0 0 0 0 0 0 0 0 0 1 2 3 3 2 2 1 1
1 1 1 2 3 4 6 6 6 4 3 3 3 2 3 3 2 1 0 0 0 0 0 0 0 0 0 0 0 0 0 0 0 0 0 2 3 4 4 3 3 2 2
2 2 3 3 3 4 5 6 5 3 3 3 2 2 3 3 2 1 0 0 0 0 0 0 0 0 0 0 0 0 0 0 0 0 0 1 2 3 4 3 3 2 2
3 3 3 3 3 3 4 5 4 2 2 2 2 2 3 2 1 0 0 0 0 0 0 0 0 0 0 0 0 0 0 0 0 0 0 0 1 3 3 3 2 2 2
3 3 3 3 3 3 3 4 3 1 1 1 1 2 3 1 0 0 0 0 0 0 0 0 0 0 0 0 0 0 0 0 0 0 0 0 1 2 2 2 2 2 2
3 3 3 3 3 3 3 3 2 1 0 0 1 2 2 1 0 0 0 0 0 0 0 0 0 0 0 0 0 0 0 0 0 0 0 0 0 1 1 1 2 2 2
3 3 3 3 3 3 3 3 3 1 0 0 0 1 1 0 0 0 0 0 0 0 0 0 0 0 0 0 0 0 0 0 0 0 0 0 0 0 0 0 1 1 1
1 2 3 3 3 3 3 3 3 2 1 0 0 0 0 0 0 0 0 0 0 0 0 0 0 0 0 0 0 0 0 0 0 0 0 0 0 0 0 0 0 0 0
0 1 2 3 3 3 3 3 3 2 1 0 0 0 0 0 0 0 0 0 0 0 0 0 0 0 0 0 0 0 0 0 0 0 0 0 0 0 0 0 0 0 0
0 0 1 2 3 3 3 3 3 3 1 0 0 0 0 0 0 0 0 0 0 0 0 0 0 0 0 0 0 0 0 0 0 0 0 0 0 0 0 0 0 0 0
0 0 0 1 1 2 3 3 3 3 2 1 0 0 0 0 0 0 0 0 0 0 0 0 0 0 0 0 0 0 0 0 0 0 0 0 0 0 0 0 0 0 0
0 0 0 0 1 2 2 3 3 3 3 2 1 0 0 0 0 0 0 0 0 0 0 0 0 0 0 0 0 0 0 0 0 0 0 0 0 0 0 0 0 0 0
0 0 0 1 2 2 2 2 3 3 3 3 1 0 0 0 0 0 0 0 0 0 0 0 0 0 0 0 0 0 0 0 0 0 0 0 0 0 0 0 0 0 0
0 0 0 1 2 3 2 2 2 3 3 3 2 1 0 0 0 0 0 0 0 0 0 0 0 0 0 0 0 0 0 0 0 0 0 0 0 0 0 0 0 0 0
0 0 0 1 2 3 3 1 1 2 3 3 3 2 1 0 0 0 0 0 0 0 0 0 0 0 0 0 0 0 0 0 0 0 0 0 0 0 0 0 0 0 0
0 0 0 1 2 3 3 2 1 1 3 3 3 2 1 0 0 0 0 0 0 0 0 0 0 0 0 0 0 0 0 0 0 0 0 0 0 0 0 0 0 0 0
Wind_Speed
2 2 2 4 6 7 7 8 8 8 8 8 9 10 10 10 10 10 10 10 10 10 10 10 11 11 12 12 13 13 12 11 11 10 10 10 10 9 8 8 7 4 7
1 1 2 4 6 7 7 8 8 8 7 8 9 10 10 10 10 10 10 10 10 10 11 11 11 11 12 12 12 13 13 12 11 11 10 9 9 8 8 8 7 4 6
1 1 1 4 6 7 8 8 9 10 10 9 9 10 10 10 10 10 10 10 10 11 11 11 11 11 11 11 12 12 12 12 12 11 10 6 5 8 8 8 7 7 7
1 1 1 4 6 7 8 8 9 10 10 10 10 10 10 9 10 10 9 10 10 11 11 11 11 11 11 11 11 11 12 12 11 10 6 5 5 8 8 8 8 8 8
2 1 2 5 5 7 7 8 9 10 10 10 10 10 10 9 9 9 9 10 10 10 11 10 10 11 11 11 11 11 11 11 11 8 5 5 4 7 9 8 8 8 9
2 2 2 5 5 6 7 8 8 9 9 9 10 10 10 9 9 9 9 10 9 10 10 10 10 11 11 11 11 11 11 11 8 5 5 4 4 8 9 9 9 9 9
2 2 2 5 5 6 7 8 8 9 9 9 9 9 10 9 9 9 9 9 9 9 10 10 11 11 11 11 11 11 11 10 6 5 4 4 5 9 9 9 9 10 10
3 2 3 4 5 6 7 7 8 8 8 9 9 9 9 9 10 10 9 9 9 9 10 10 10 10 11 11 11 11 10 9 7 5 4 3 7 9 10 10 10 9 10
3 3 3 2 3 5 6 6 7 8 8 8 9 9 9 10 10 10 10 10 9 9 10 10 10 10 10 11 11 11 11 11 6 3 4 3 7 8 9 9 9 9 9
3 2 2 2 3 3 3 5 6 7 7 8 9 9 9 9 9 9 9 10 10 10 10 10 10 11 11 11 11 12 11 9 5 4 3 4 8 8 8 8 8 8 9
2 1 2 2 2 2 2 4 5 6 6 7 6 8 8 5 5 5 8 9 10 10 10 10 11 11 11 11 12 12 9 4 4 3 3 6 8 8 8 8 8 8 9
1 0 0 1 1 2 2 2 2 3 3 4 3 4 4 4 4 5 8 10 10 10 11 11 12 11 8 5 7 8 4 4 4 3 4 9 8 8 8 9 9 9 9
2 1 1 1 1 1 1 2 1 2 2 3 3 3 3 3 3 4 3 5 5 7 5 7 7 5 4 4 4 4 4 4 3 3 4 9 9 9 10 10 10 9 9
2 1 1 1 1 1 1 1 1 1 1 1 2 2 2 2 3 3 3 3 3 3 3 3 3 4 5 5 5 5 5 4 3 3 5 10 10 10 10 10 9 9 9
2 1 1 2 1 1 1 1 2 2 1 1 1 2 2 2 2 2 2 2 3 3 3 3 3 4 4 4 4 5 5 5 5 4 4 10 10 10 10 9 9 9 10
3 2 2 2 2 2 1 1 1 1 2 2 1 2 2 2 2 2 2 2 2 2 2 2 3 3 3 3 4 4 4 4 4 4 4 6 10 10 10 9 8 9 9
3 2 2 3 2 2 2 2 2 2 2 2 1 2 2 2 2 2 2 2 2 2 3 3 3 3 3 4 4 4 4 4 4 4 4 4 4 8 10 9 8 8 8
3 2 2 3 3 2 2 2 1 2 2 1 1 1 2 2 2 2 2 1 1 2 2 2 3 3 3 3 3 3 3 3 4 4 4 4 4 4 7 10 9 8 8
3 3 3 2 3 3 2 2 2 2 2 1 1 1 1 2 2 2 2 1 2 2 2 2 2 2 2 2 2 3 3 3 3 4 4 5 4 4 4 7 10 9 9
3 3 2 2 3 3 2 2 2 2 1 1 1 1 2 1 2 2 2 2 2 2 2 2 2 2 2 1 2 3 3 3 3 3 3 3 4 4 4 5 4 6 9
2 3 3 2 2 3 2 2 1 1 0 0 1 1 2 2 2 2 2 2 2 2 2 2 2 2 2 2 2 3 3 3 3 2 2 3 3 3 4 4 3 3 3
3 3 3 3 2 2 2 2 2 2 1 0 1 1 1 1 2 2 2 2 2 2 2 2 2 2 1 2 2 2 2 3 3 3 2 2 2 2 3 3 3 3 3
4 4 4 3 3 2 2 2 3 2 2 2 1 1 0 1 1 2 2 2 2 2 2 1 2 2 1 1 1 2 2 1 2 3 2 2 2 2 2 2 2 3 2
5 4 4 3 3 2 3 3 4 3 2 2 1 1 0 1 1 1 2 2 2 1 2 1 2 1 2 1 1 1 1 2 1 2 3 2 2 2 2 2 2 2 2
3 3 3 3 2 2 2 3 3 2 2 1 1 1 1 1 1 1 2 2 2 1 2 1 1 1 2 2 2 1 1 1 1 1 2 3 3 2 2 2 1 2 2
2 2 3 3 2 2 3 3 3 3 2 2 1 1 0 0 0 0 1 1 1 1 2 2 2 2 2 2 2 1 2 2 1 1 1 2 2 3 2 2 1 1 2
Wind_Direction
295 299 14 64 69 70 68 66 67 69 74 81 88 87 84 82 82 81 79 78 77 76 77 75 73 72 71 71 73 76 78 79 80 78 75 81 89 95 98 99 96 96 101
240 320 49 72 75 72 69 65 64 69 80 82 87 88 86 84 83 82 80 78 77 74 73 74 73 73 72 71 73 75 76 76 75 72 71 74 81 88 94 96 97 94 97
97 14 69 83 82 76 72 70 70 72 83 84 87 87 85 82 83 82 79 78 77 76 74 74 74 74 73 73 74 74 73 71 70 67 64 55 69 83 87 91 94 90 87
114 54 87 94 88 79 75 74 75 76 80 81 83 84 85 82 82 79 77 78 77 76 74 73 74 72 72 72 73 75 74 72 70 67 55 46 52 77 81 83 85 83 78
80 47 69 92 89 86 79 79 79 77 80 81 80 82 81 80 78 77 76 77 77 77 74 71 72 71 69 69 72 75 74 72 71 63 51 43 42 69 75 75 77 79 77
71 47 70 88 87 86 84 83 84 83 84 82 80 79 77 77 77 76 76 76 76 75 73 70 69 68 66 67 70 75 74 71 66 55 49 43 44 67 70 72 75 76 76
82 51 67 85 85 87 88 87 89 88 86 83 80 78 78 77 74 73 74 75 75 74 72 69 68 67 66 67 69 72 74 71 65 56 47 44 55 65 67 69 73 73 75
90 60 52 72 76 80 86 89 89 87 85 81 77 75 77 76 74 71 71 74 76 75 72 68 67 67 67 70 69 70 70 68 63 57 47 45 64 67 67 69 70 69 71
78 63 44 41 49 65 80 84 85 85 84 81 76 72 72 70 69 67 66 69 70 69 68 64 63 64 66 67 66 67 67 64 52 42 50 50 66 69 71 74 74 73 72
68 61 55 41 37 38 52 74 80 81 79 76 74 71 66 62 60 60 59 62 64 64 64 62 61 61 61 63 62 63 61 55 42 39 32 54 66 71 73 74 76 75 74
72 47 59 54 36 35 49 63 64 69 69 67 65 68 61 45 41 44 49 59 62 64 63 61 61 60 60 58 60 59 53 42 37 36 30 54 63 70 75 76 77 76 74
178 246 74 77 53 37 54 58 48 55 52 56 58 58 55 48 40 45 42 53 56 59 58 59 59 56 53 44 51 52 43 37 36 32 44 53 59 66 71 74 75 75 73
187 164 142 140 84 64 54 71 59 57 58 55 58 60 60 53 41 38 37 37 42 50 46 47 48 43 44 46 47 45 42 40 31 27 37 51 57 62 67 68 71 73 73
158 179 150 143 121 96 78 81 93 85 81 75 64 67 70 61 47 39 43 37 39 42 44 41 46 45 46 45 49 49 44 41 31 22 34 48 54 58 63 66 69 70 72
172 185 166 149 140 106 87 80 103 109 108 102 85 78 84 82 64 51 46 45 42 48 52 50 51 51 50 45 45 48 44 39 34 31 26 42 50 54 58 62 64 64 65
192 191 160 148 141 110 96 89 96 108 108 97 86 87 90 91 85 70 55 47 42 44 53 63 63 60 53 53 47 42 41 37 37 34 30 30 39 45 50 57 61 64 63
193 180 159 154 126 122 115 103 102 111 109 107 100 91 98 102 99 88 74 56 41 47 58 62 59 57 56 52 45 37 39 36 37 33 30 25 23 34 41 48 52 56 59
173 163 167 157 131 129 112 108 100 101 105 103 104 102 105 104 105 97 88 71 61 62 65 67 60 59 51 45 37 28 30 34 37 35 33 28 24 24 31 39 42 45 49
172 162 156 145 140 141 128 112 105 100 98 100 101 107 110 106 110 109 99 80 72 71 65 77 63 70 68 48 40 35 25 30 31 38 35 30 29 28 23 28 33 37 43
151 142 138 142 139 134 121 101 81 75 74 78 96 103 116 113 112 111 102 83 83 84 68 71 77 59 71 63 54 40 27 26 33 30 23 25 25 27 27 26 22 24 35
133 132 137 140 148 137 133 140 129 134 127 65 83 102 115 117 117 115 111 97 91 98 105 102 95 78 54 57 63 27 12 25 39 24 20 26 22 18 24 23 19 19 16
172 166 162 167 154 161 160 153 149 143 136 132 38 70 96 115 126 126 124 124 114 105 94 95 100 99 68 58 96 80 13 356 1 15 17 23 10 9 16 15 12 16 11
186 184 182 182 171 166 140 110 88 69 54 46 30 20 25 119 124 121 133 134 130 135 143 141 128 123 131 42 69 120 125 248 316 337 356 6 0 6 354 352 9 4 4
201 186 176 175 171 170 144 140 143 151 171 200 193 186 58 94 120 130 135 137 139 137 146 165 142 140 142 142 57 54 132 158 149 322 331 342 346 349 337 345 350 349 354
192 178 172 159 160 161 157 153 156 160 174 151 111 101 75 49 86 123 137 135 141 151 163 157 146 156 159 161 159 137 86 62 110 153 294 321 334 322 320 314 316 330 340
163 162 156 149 156 150 152 152 153 156 151 129 129 141 172 15 30 135 151 155 163 171 181 181 173 174 175 164 165 158 156 159 179 164 210 282 302 306 312 306 306 311 321